User: anonymous   Login
Location: SAPM � Hemmingford
(45.0500°N, 73.5833°W)
Time: 07:29:01
(UTC-05:00)
Language:

Cosmos 1674 Rocket - Orbit

View from above orbital plane
View from above orbital plane
View from above satellite
View from above satellite

Ground track
Ground track

The orbit data is extracted from the following two-line orbital elements,

1 15945U 85069B   16341.50206069  .00000109  00000-0  10193-4 0  9993
2 15945  82.5267 313.4578 0019323 193.7065 166.3629 14.83897960692450
Epoch (UTC): 06 December 2016 12:02:58
Eccentricity: 0.0019323
inclination: 82.5267°
perigee height: 603 km
apogee height: 630 km
right ascension of ascending node: 313.4578°
argument of perigee: 193.7065°
revolutions per day: 14.83897960
mean anomaly at epoch: 166.3629°
orbit number at epoch: 69245

The dashed part of the orbit path shows where the satellite is in the earth's shadow,  

DLR